Weather History for Barrow, AK

Change the Weather History Date:

Monday, December 31, 2012

  Actual Average Record
Temperature  
Mean Temperature -9 °F -11 °F  
Max Temperature -6 °F -5 °F 32 °F (1923)
Min Temperature -12 °F -17 °F -51 °F (1974)
Degree Days  
Heating Degree Days 74 76  
Month to date heating degree days 2314 2257  
Since 1 July heating degree days 7378 8207  
Cooling Degree Days 0    
Month to date cooling degree days 0  
Year to date cooling degree days 0  
Moisture  
Dew Point -14 °F    
Average Humidity 0    
Maximum Humidity 0    
Minimum Humidity 0    
Precipitation  
Precipitation 0.00 in 0.00 in 0.03 in (2003)
Month to date precipitation 0.07 0.14  
Year to date precipitation 6.27 4.53  
Snow  
Snow 0.00 in 0.10 in 0.60 in (2003)
Month to date snowfall 4.0 3.5  
Since 1 July snowfall 37.6 23.8  
Snow Depth 6.00 in    
Sea Level Pressure  
Sea Level Pressure 30.08 in    
Wind  
Wind Speed 21 mph (NE)    
Max Wind Speed 29 mph    
Max Gust Speed 31 mph    
Visibility 4 miles    
Events Snow    
T = Trace of Precipitation, MM = Missing Value Source: NWS Daily Summary

Daily Weather History Graph

Daily Weather History Graph

Search for Another Location

Airport:

Trip Planner

Search our weather history database for the weather conditions in past years. The results will help you decide how hot, cold, wet, or windy it might be!

Date:

Astronomy

Dec. 31, 1969 Rise Set
Actual Time Sun does not rise Sun does not rise
Civil Twilight 11:47 AM AKST 3:14 PM AKST
Nautical Twilight 9:43 AM AKST 5:17 PM AKST
Astronomical Twilight 8:18 AM AKST 6:43 PM AKST
Moon 8:33 PM AKST (12/31) 12:10 PM AKST (12/31)
Length of Visible Light 3h 27m
Length of Day
0h 00m
Waning Gibbous, 89% of the Moon is Illuminated
Dec 31
Waning Gibbous
Jan 4
Last Quarter
Jan 11
New
Jan 18
First Quarter
Jan 26
Full

Hourly Weather History & Observations

Time (AKST) Temp. Windchill Dew Point Humidity Pressure Visibility Wind Dir Wind Speed Gust Speed Precip Events Conditions
12:53 AM -11.9 °F -36.8 °F -17.0 °F 78% 30.00 in 8.0 mi NE 18.4 mph - N/A   Mostly Cloudy
1:53 AM -11.9 °F -37.4 °F -17.0 °F 78% 30.02 in 8.0 mi NE 19.6 mph - N/A   Mostly Cloudy
2:53 AM -11.2 °F -37.0 °F -16.6 °F 77% 30.02 in 6.0 mi NE 20.7 mph - N/A Snow Blowing Snow
3:25 AM -11.2 °F -37.6 °F -16.6 °F 77% 30.01 in 4.0 mi NE 21.9 mph - N/A Snow Blowing Snow
3:39 AM -11.2 °F -37.0 °F -16.6 °F 77% 30.01 in 2.5 mi NE 20.7 mph - N/A Snow Blowing Snow
3:53 AM -11.0 °F -36.2 °F -16.1 °F 78% 30.02 in 2.5 mi NE 19.6 mph - N/A Snow Blowing Snow
4:04 AM -11.2 °F -36.4 °F -16.6 °F 77% 30.01 in 3.0 mi NE 19.6 mph - N/A Snow Blowing Snow
4:35 AM -9.4 °F -34.7 °F - N/A% 30.02 in 3.0 mi NE 20.7 mph - N/A Snow Blowing Snow
4:44 AM -9.4 °F -34.7 °F - N/A% 30.02 in 2.0 mi NE 20.7 mph 29.9 mph N/A Snow Blowing Snow
4:53 AM -9.9 °F -35.4 °F - N/A% 30.03 in 3.0 mi NE 20.7 mph - N/A Snow Blowing Snow
5:10 AM -9.4 °F -33.5 °F - N/A% 30.02 in 4.0 mi NE 18.4 mph - N/A Snow Blowing Snow
5:23 AM -9.4 °F -33.5 °F - N/A% 30.03 in 3.0 mi NE 18.4 mph - N/A Snow Blowing Snow
5:53 AM -9.0 °F -34.8 °F - N/A% 30.03 in 3.0 mi NE 21.9 mph 27.6 mph N/A Snow Blowing Snow
6:32 AM -9.4 °F -35.8 °F - N/A% 30.03 in 2.5 mi NE 23.0 mph 28.8 mph N/A Snow Blowing Snow
6:53 AM -9.9 °F -35.4 °F - N/A% 30.04 in 2.5 mi NE 20.7 mph 29.9 mph N/A Snow Blowing Snow
7:04 AM -9.4 °F -35.8 °F - N/A% 30.03 in 3.0 mi ENE 23.0 mph 29.9 mph N/A Snow Blowing Snow
7:53 AM -9.9 °F -35.4 °F - N/A% 30.05 in 3.0 mi NE 20.7 mph - N/A Snow Blowing Snow
8:53 AM -9.9 °F -34.2 °F - N/A% 30.06 in 8.0 mi NE 18.4 mph - N/A   Mostly Cloudy
9:53 AM -9.0 °F -34.8 °F - N/A% 30.08 in 8.0 mi NE 21.9 mph 27.6 mph N/A   Mostly Cloudy
10:53 AM -9.0 °F -34.2 °F - N/A% 30.08 in 3.0 mi NE 20.7 mph - N/A Snow Blowing Snow
11:53 AM -9.0 °F -34.2 °F - N/A% 30.09 in 3.0 mi NE 20.7 mph 29.9 mph N/A Snow Blowing Snow
12:22 PM -9.4 °F -34.7 °F - N/A% 30.09 in 2.5 mi NE 20.7 mph 28.8 mph N/A Snow Blowing Snow
12:53 PM -9.0 °F -34.8 °F - N/A% 30.11 in 2.5 mi ENE 21.9 mph 27.6 mph N/A Snow Blowing Snow
1:27 PM -9.4 °F -33.5 °F - N/A% 30.11 in 3.0 mi ENE 18.4 mph - N/A Snow Blowing Snow
1:53 PM -9.0 °F -34.2 °F -14.1 °F 79% 30.12 in 3.0 mi ENE 20.7 mph - N/A Snow Blowing Snow
2:48 PM -9.4 °F -35.8 °F -14.8 °F 77% 30.13 in 3.0 mi ENE 23.0 mph - N/A Snow Blowing Snow
2:53 PM -9.0 °F -34.8 °F -14.1 °F 79% 30.14 in 3.0 mi ENE 21.9 mph - N/A Snow Blowing Snow
3:53 PM -9.0 °F -35.3 °F -14.1 °F 79% 30.12 in 5.0 mi ENE 23.0 mph - N/A Snow Blowing Snow
4:53 PM -9.0 °F -34.2 °F -14.1 °F 79% 30.14 in 7.0 mi ENE 20.7 mph - N/A   Mostly Cloudy
5:53 PM -9.0 °F -34.2 °F -14.1 °F 79% 30.15 in 6.0 mi ENE 20.7 mph - N/A Snow Blowing Snow
6:53 PM -8.0 °F -33.9 °F -13.0 °F 79% 30.14 in 3.0 mi ENE 23.0 mph - N/A Snow Blowing Snow
7:53 PM -8.0 °F -34.4 °F -13.0 °F 79% 30.14 in 4.0 mi ENE 24.2 mph - N/A Snow Blowing Snow
8:53 PM -7.1 °F -32.7 °F -11.9 °F 79% 30.14 in 5.0 mi ENE 23.0 mph - N/A Snow Blowing Snow
9:53 PM -6.0 °F -31.2 °F -11.9 °F 75% 30.16 in 7.0 mi ENE 23.0 mph - N/A   Overcast
10:53 PM -6.0 °F -31.7 °F -11.0 °F 79% 30.17 in 6.0 mi ENE 24.2 mph - N/A Snow Blowing Snow
11:53 PM -6.0 °F -31.2 °F -11.0 °F 79% 30.15 in 5.0 mi ENE 23.0 mph - N/A Snow Blowing Snow